EA5DHO-13 Weather Reports


time (UTC)temp
C
wind
direction
speed
KPH
gust
KPH
rain 1hr
cm
rain 24hr
cm
rain mn
cm
humidity
%
barometer
mb
20260506233502 16 270 3.2 3.2 0.00 0.00 0.00 74 1015.0
20260506232459 16 270 1.6 3.2 0.00 0.00 0.00 73 1015.1
20260506231455 16 293 3.2 3.2 0.00 0.00 0.00 72 1015.2
20260506230454 16 338 1.6 3.2 0.00 0.00 0.00 72 1015.2
20260506225449 16 315 3.2 3.2 0.00 0.00 0.00 72 1015.2
20260506224446 16 330 1.6 3.2 0.00 0.00 0.00 72 1015.2
20260506223443 16 334 1.6 3.2 0.00 0.00 0.00 71 1015.2
20260506222441 16 330 3.2 6.4 0.00 0.00 0.00 71 1015.2
20260506221437 16 330 1.6 3.2 0.00 0.00 0.00 71 1015.1
20260506220434 16 315 0.0 3.2 0.00 0.00 0.00 71 1015.2
20260506215430 16 0.0 3.2 0.00 0.00 0.00 70 1015.3
20260506214427 17 323 1.6 6.4 0.00 0.00 0.00 70 1015.2
20260506213423 17 0.0 0.0 0.00 0.00 0.00 70 1015.1
20260506212420 17 15 1.6 3.2 0.00 0.00 0.00 69 1015.0
20260506211417 17 0.0 0.0 0.00 0.00 0.00 67 1015.0
20260506210515 17 45 1.6 3.2 0.00 0.00 0.00 67 1014.8
20260506205512 17 68 3.2 6.4 0.00 0.00 0.00 68 1014.7
20260506204507 17 90 3.2 9.7 0.00 0.00 0.00 68 1014.7
20260506203526 17 60 6.4 11.3 0.00 0.00 0.00 68 1014.6
20260506202501 17 90 3.2 6.4 0.00 0.00 0.00 69 1014.5
20260506201459 17 51 3.2 6.4 0.00 0.00 0.00 69 1014.3
20260506200516 17 99 6.4 9.7 0.00 0.00 0.00 68 1014.3
20260506195513 17 90 6.4 9.7 0.00 0.00 0.00 68 1014.2
20260506194448 17 90 4.8 6.4 0.00 0.00 0.00 68 1014.1
20260506193446 17 81 6.4 9.7 0.00 0.00 0.00 68 1014.0
20260506192443 17 58 6.4 12.9 0.00 0.00 0.00 68 1013.9
20260506191438 17 68 9.7 14.5 0.00 0.00 0.00 69 1013.8
20260506190435 17 68 9.7 14.5 0.00 0.00 0.00 68 1013.7
20260506185453 17 54 9.7 17.7 0.00 0.00 0.00 68 1013.7
20260506184429 17 68 8.0 12.9 0.00 0.00 0.00 68 1013.6
20260506183426 17 90 9.7 14.5 0.00 0.00 0.00 67 1013.4
20260506182422 18 80 6.4 6.4 0.00 0.00 0.00 67 1013.5
20260506181419 17 54 8.0 12.9 0.00 0.00 0.00 66 1013.3
20260506180416 17 90 9.7 14.5 0.00 0.00 0.00 67 1013.2
20260506175513 18 59 9.7 14.5 0.00 0.00 0.00 67 1013.1
20260506174510 18 127 9.7 20.9 0.00 0.00 0.00 67 1013.2
20260506173506 18 83 14.5 17.7 0.00 0.00 0.00 67 1013.2
20260506172503 18 69 9.7 17.7 0.00 0.00 0.00 67 1013.3
20260506171501 18 68 12.9 20.9 0.00 0.00 0.00 67 1013.4
20260506170538 18 68 11.3 17.7 0.00 0.00 0.00 67 1013.4
20260506165453 18 53 11.3 17.7 0.00 0.00 0.00 67 1013.5
20260506164452 18 56 9.7 22.5 0.00 0.00 0.00 67 1013.6
20260506163507 18 29 12.9 20.9 0.00 0.00 0.00 68 1013.5
20260506162444 18 68 16.1 24.1 0.00 0.00 0.00 67 1013.5
20260506161442 18 51 14.5 27.4 0.00 0.00 0.00 67 1013.4
20260506160439 18 96 14.5 24.1 0.00 0.00 0.00 67 1013.4
20260506155455 17 68 11.3 29.0 0.00 0.00 0.00 66 1013.6
20260506154511 18 68 14.5 22.5 0.00 0.00 0.00 65 1013.6
20260506153449 18 74 16.1 24.1 0.00 0.00 0.00 66 1013.4
20260506152426 17 79 22.5 29.0 0.00 0.00 0.00 67 1013.4
20260506151443 18 55 14.5 24.1 0.00 0.00 0.00 66 1013.0
20260506150418 18 68 14.5 22.5 0.00 0.00 0.00 67 1013.4
20260506145415 18 110 12.9 22.5 0.00 0.00 0.00 66 1013.8
20260506144513 18 99 11.3 17.7 0.00 0.00 0.00 64 1013.8
20260506143508 18 96 12.9 22.5 0.00 0.00 0.00 65 1013.7
20260506142525 18 120 11.3 20.9 0.00 0.00 0.00 66 1013.8
20260506141502 18 62 9.7 22.5 0.00 0.00 0.00 67 1013.9
20260506140500 18 126 12.9 20.9 0.00 0.00 0.00 66 1013.9
20260506135517 18 182 11.3 24.1 0.00 0.00 0.00 67 1013.8
20260506134452 18 74 14.5 24.1 0.00 0.00 0.00 65 1013.8
20260506133450 19 97 17.7 29.0 0.00 0.00 0.00 60 1013.8
20260506132446 19 116 9.7 17.7 0.00 0.00 0.00 60 1013.9
20260506131444 19 113 19.3 29.0 0.00 0.00 0.00 62 1013.9
20260506130441 20 102 14.5 32.2 0.00 0.00 0.00 58 1014.0
20260506125436 19 76 17.7 25.7 0.00 0.00 0.00 61 1014.0
20260506124433 19 113 20.9 29.0 0.00 0.00 0.00 58 1014.1
20260506123430 20 100 14.5 27.4 0.00 0.00 0.00 57 1014.1
20260506122427 19 95 16.1 33.8 0.00 0.00 0.00 61 1014.2
20260506121445 20 97 9.7 20.9 0.00 0.00 0.00 61 1014.2
20260506120420 20 102 6.4 20.9 0.00 0.00 0.00 60 1014.2
20260506115417 19 56 17.7 33.8 0.00 0.00 0.00 60 1014.3
20260506114514 20 119 11.3 22.5 0.00 0.00 0.00 57 1014.5
20260506113531 21 105 6.4 12.9 0.00 0.00 0.00 56 1014.4
20260506112507 20 85 12.9 24.1 0.00 0.00 0.00 57 1014.4
20260506111524 20 127 6.4 12.9 0.00 0.00 0.00 53 1014.4
20260506110502 19 90 12.9 20.9 0.00 0.00 0.00 57 1014.4
20260506105519 19 90 16.1 22.5 0.00 0.00 0.00 54 1014.5
20260506104455 20 102 9.7 17.7 0.00 0.00 0.00 53 1014.6
20260506103512 19 68 17.7 20.9 0.00 0.00 0.00 53 1014.5
20260506102448 20 99 11.3 17.7 0.00 0.00 0.00 55 1014.6
20260506101505 20 82 16.1 20.9 0.00 0.00 0.00 53 1014.6
20260506100442 20 90 8.0 20.9 0.00 0.00 0.00 55 1014.6
20260506095438 20 90 12.9 20.9 0.00 0.00 0.00 56 1014.6
20260506094435 20 180 4.8 9.7 0.00 0.00 0.00 55 1014.6
20260506093452 20 84 3.2 6.4 0.00 0.00 0.00 55 1014.6
20260506092429 21 82 1.6 3.2 0.00 0.00 0.00 52 1014.5
20260506091426 21 166 3.2 17.7 0.00 0.00 0.00 52 1014.5
20260506090422 20 177 3.2 6.4 0.00 0.00 0.00 56 1014.6
20260506085419 20 158 3.2 3.2 0.00 0.00 0.00 56 1014.5
20260506084436 20 180 0.0 3.2 0.00 0.00 0.00 56 1014.6
20260506083513 19 0.0 3.2 0.00 0.00 0.00 61 1014.7
20260506082510 18 177 3.2 6.4 0.00 0.00 0.00 62 1014.7
20260506081506 17 261 4.8 6.4 0.00 0.00 0.00 63 1014.6
20260506080503 17 270 4.8 6.4 0.00 0.00 0.00 64 1014.6
20260506073455 16 276 3.2 6.4 0.00 0.00 0.00 68 1014.6
20260506072450 16 285 1.6 3.2 0.00 0.00 0.00 69 1014.5
20260506071448 16 244 3.2 6.4 0.00 0.00 0.00 70 1014.5
20260506070445 15 277 3.2 6.4 0.00 0.00 0.00 72 1014.4
20260506062431 15 248 3.2 3.2 0.00 0.00 0.00 77 1014.5
20260506061449 14 248 4.8 6.4 0.00 0.00 0.00 77 1014.4
20260506060426 14 248 1.6 3.2 0.00 0.00 0.00 79 1014.3
20260506050505 13 0.0 0.0 0.00 0.00 0.00 83 1014.2
20260506044459 13 252 4.8 6.4 0.00 0.00 0.00 82 1014.1
20260506043457 13 240 3.2 6.4 0.00 0.00 0.00 81 1014.1
20260506042453 13 184 3.2 6.4 0.00 0.00 0.00 81 1014.0
20260506041510 13 270 3.2 3.2 0.00 0.00 0.00 80 1013.7
20260506040447 13 257 3.2 3.2 0.00 0.00 0.00 80 1013.8
20260506035505 13 225 1.6 6.4 0.00 0.00 0.00 79 1013.7
20260506034439 14 0.0 0.0 0.00 0.00 0.00 78 1013.8
20260506033436 15 270 3.2 3.2 0.00 0.00 0.00 77 1013.8
20260506032433 15 0.0 3.2 0.00 0.00 0.00 77 1013.9
20260506031430 14 293 1.6 3.2 0.00 0.00 0.00 78 1014.0
20260506030426 14 0.0 0.0 0.00 0.00 0.00 79 1014.0
20260506025423 14 248 1.6 3.2 0.00 0.00 0.00 78 1014.0
20260506024420 14 248 3.2 6.4 0.00 0.00 0.00 77 1014.1
20260506023438 14 278 4.8 6.4 0.00 0.00 0.00 75 1014.0
20260506022513 15 248 1.6 3.2 0.00 0.00 0.00 73 1013.9
20260506021512 15 240 3.2 3.2 0.00 0.00 0.00 72 1013.9
20260506020508 15 248 3.2 6.4 0.00 0.00 0.00 71 1013.8
20260506015525 15 256 4.8 9.7 0.00 0.00 0.00 70 1013.7
20260506014501 15 259 4.8 9.7 0.00 0.00 0.00 69 1013.8
20260506013458 16 270 3.2 3.2 0.00 0.00 0.00 68 1013.7
20260506012456 16 270 3.2 6.4 0.00 0.00 0.00 67 1013.8
20260506011452 16 248 1.6 3.2 0.00 0.00 0.00 66 1013.9
20260506010510 16 248 3.2 6.4 0.00 0.00 0.00 65 1014.0
20260506005444 16 203 3.2 3.2 0.00 0.00 0.00 64 1014.1
20260506004441 16 180 3.2 3.2 0.00 0.00 0.00 64 1014.2
20260506003438 16 0.0 0.0 0.00 0.00 0.00 65 1014.4
20260506002435 16 158 3.2 3.2 0.00 0.00 0.00 64 1014.4
20260506001432 16 45 1.6 3.2 0.00 0.00 0.00 65 1014.4
20260506000431 16 0.0 0.0 0.00 0.00 0.00 64 1014.5
20260505235426 16 0.0 3.2 0.00 0.00 0.00 65 1014.5
20260505234423 16 0.0 0.0 0.00 0.00 0.00 65 1014.5